Weather Roundup
Issued by NWS Springfield, MO

Home | Current Version | Previous Version | Text Only | Print | Product List | Glossary On
Versions: 1 2 3 4 5 6 7 8 9 10 11 12 13 14 15 16 17 18 19 20 21 22 23 24 25 26 27 28 29 30 31 32 33 34 35 36 37 38 39 40 41 42 43 44 45 46 47 48 49 50
000
NZUS99 KSGF 271607
HRRSGF

HOURLY WEATHER
NATIONAL WEATHER SERVICE SPRINGFIELD MO
1100 AM CDT TUE SEP 27 2016

......SGF CWA......

CITY           SKY/WX    TMP DP  RH WIND       PRES   REMARKS
SPRINGFIELD    SUNNY     70  44  39 W13       30.10F
JOPLIN         SUNNY     70  48  45 SW10      30.11F
WEST PLAINS    SUNNY     70  44  39 W8        30.11F
ROLLA          SUNNY     69  48  47 SW12      30.05F
OSAGE BEACH    SUNNY     70  50  49 SW10      30.07F
BRANSON        SUNNY     68  46  45 W3        30.14S

......SURROUNDING SGF CWA......

CITY           SKY/WX    TMP DP  RH WIND       PRES   REMARKS
CHANUTE        SUNNY     71  50  47 SW9       30.09F
PARSONS        SUNNY     71  50  47 SW6       30.11F
COFFEYVILLE    SUNNY     71  49  45 SW9       30.11F
EMPORIA        SUNNY     70  49  47 W7        30.07F
GROVE OK       SUNNY     68  50  52 CALM      30.13F
ROGERS AR      SUNNY     67  46  47 W6        30.15S
SILOAM SPRINGS SUNNY     70  43  37 NW3       30.15S
HARRISON AR    SUNNY     70  43  37 W8        30.13S
NEAR YELLVILLE SUNNY     66  50  55 CALM      30.09F

......KANSAS AND MISSOURI......

CITY           SKY/WX    TMP DP  RH WIND       PRES   REMARKS
KANSAS CTY INT SUNNY     67  50  54 VRB7      30.04S
DOWNTOWN KC      N/A    N/A N/A N/A MISG      30.03F
COLUMBIA       SUNNY     70  48  45 W12       30.03F
SEDALIA        SUNNY     72  47  40 W12       30.05F
ST JOSEPH      SUNNY     68  49  50 CALM      30.03F
ST LOUIS       MOSUNNY   71  46  40 W14       30.01F
SPIRIT OF STL  SUNNY     69  49  48 W13       30.00F
KIRKSVILLE     SUNNY     68  48  48 W9        30.00F
WICHITA        SUNNY     70  48  45 W7        30.09S
TOPEKA         SUNNY     68  50  52 W5        30.04F
OLATHE         SUNNY     67  49  52 W8        30.05F

......TENNESSEE......

CITY           SKY/WX    TMP DP  RH WIND       PRES   REMARKS
MEMPHIS        MOSUNNY   74  43  32 VRB3G16   30.06F
NASHVILLE      MOSUNNY   71  48  43 N8        30.05F

......ARKANSAS.......

CITY           SKY/WX    TMP DP  RH WIND       PRES   REMARKS
FAYETTEVILLE   SUNNY     67  47  48 VRB5      30.15S
FT SMITH       SUNNY     70  48  45 MISG      30.13F
LITTLE ROCK    MOSUNNY   74  48  39 NW6       30.10S

......OKLAHOMA.......

CITY           SKY/WX    TMP DP  RH WIND       PRES   REMARKS
TULSA          MOSUNNY   72  44  36 VRB7      30.12F
PONCA CITY     SUNNY     71  49  45 SW8       30.11F
MCALESTER      SUNNY     73  44  35 NE7       30.15S
OKLAHOMA CITY  MOSUNNY   71  46  40 W7        30.16S

......IOWA............

CITY           SKY/WX    TMP DP  RH WIND       PRES   REMARKS
DES MOINES     MOSUNNY   67  43  41 W10       29.96F
QUAD CITIES    SUNNY     66  40  38 W18G24    29.90F

......ILLINOIS........

CITY           SKY/WX    TMP DP  RH WIND       PRES   REMARKS
QUINCY         SUNNY     67  46  47 W6        29.98F
CHICAGO        MOSUNNY   65  30  27 W21G36    29.80F



USA.gov is the U.S. government's official web portal to all federal, state and local government web resources and services.